Petit Wasmes, Belgium

5:41 PM CET on January 21, 2017 (GMT +0100)
Chievres

Weather History for EBCV - January, 2013

Change the Weather History Date:

Thursday, January 17, 2013

  Actual Average Record
Temperature  
Mean Temperature 16 °F -  
Max Temperature 23 °F 42 °F 53 °F (2007)
Min Temperature 10 °F 36 °F 10 °F (2013)
Degree Days  
Heating Degree Days 48    
Moisture  
Dew Point 17 °F    
Average Humidity 92    
Maximum Humidity 100    
Minimum Humidity 85    
Precipitation  
Precipitation 0.00 in - - ()
Sea Level Pressure  
Sea Level Pressure 30.05 in    
Wind  
Wind Speed 2 mph ()    
Max Wind Speed 8 mph    
Max Gust Speed -    
Visibility 1.0 miles    
Events Fog , Rain , Snow    
Averages and records for this station are not official NWS values.
T = Trace of Precipitation, MM = Missing Value Source: Averaged Metar Reports

Daily Weather History Graph

Daily Weather History Graph

Search for Another Location

Airport or City:

Trip Planner

Search our weather history database for the weather conditions in past years. The results will help you decide how hot, cold, wet, or windy it might be!

Date:

Astronomy

Jan. 17, 2013 Rise Set
Actual Time 8:37 AM CET 5:12 PM CET
Civil Twilight 8:00 AM CET 5:49 PM CET
Nautical Twilight 7:19 AM CET 6:30 PM CET
Astronomical Twilight 6:40 AM CET 7:09 PM CET
Moon 10:52 AM CET (1/17) No Moon Set
Length of Visible Light 9h 48m
Length of Day
8h 34m
Waxing Crescent, 35% of the Moon is Illuminated
Jan 17
Waxing Crescent
Jan 19
First Quarter
Jan 27
Full
Feb 3
Last Quarter
Feb 10
New

Hourly Weather History & Observations

Time (CET) Temp. Windchill Dew Point Humidity Pressure Visibility Wind Dir Wind Speed Gust Speed Precip Events Conditions
12:10 AM 12.2 °F 6.1 °F 8.6 °F 85% 29.98 in 0.5 mi Variable 3.5 mph - N/A Fog Light Freezing Fog
12:16 AM 12.2 °F 6.1 °F 8.6 °F 85% 29.98 in 1.3 mi Variable 3.5 mph - N/A   Clear
12:22 AM 12.2 °F - 10.4 °F 92% 29.98 in - Variable 2.3 mph - N/A   Clear
12:25 AM 12.2 °F - 10.4 °F 92% 29.98 in - Variable 2.3 mph - N/A   Clear
12:55 AM 12.2 °F - 10.4 °F 92% 29.98 in - Variable 1.2 mph - N/A   Clear
1:00 AM 12 °F - 10 °F 86% 30.02 in 3 mi Calm Calm - - Fog Fog
1:25 AM 12.2 °F - 8.6 °F 85% 29.98 in 2.2 mi Calm Calm - N/A   Clear
1:58 AM 12.2 °F - 8.6 °F 85% 30.01 in 0.9 mi Variable 1.2 mph - N/A   Clear
2:05 AM 12.2 °F - 8.6 °F 85% 30.01 in 0.6 mi Variable 2.3 mph - N/A Fog Light Freezing Fog
2:11 AM 12.2 °F 4.3 °F 8.6 °F 85% 30.01 in 0.1 mi North 4.6 mph - N/A Fog Light Freezing Fog
2:25 AM 12.2 °F 6.1 °F 10.4 °F 92% 30.01 in 0.0 mi Variable 3.5 mph - N/A Fog Light Freezing Fog
3:25 AM 14.0 °F - 12.2 °F 93% 30.04 in 0.0 mi Variable 2.3 mph - N/A Fog Light Freezing Fog
4:00 AM 15 °F - 13 °F 89% 30.06 in 0 mi 2.2 mph - - Fog Fog
4:25 AM 15.8 °F 10.2 °F 14.0 °F 93% 30.04 in 0.0 mi Variable 3.5 mph - N/A Fog Light Freezing Fog
5:25 AM 15.8 °F - 15.8 °F 100% 30.04 in 0.0 mi Variable 1.2 mph - N/A Fog Light Freezing Fog
6:25 AM 15.8 °F - 14.0 °F 93% 30.04 in 0.1 mi Variable 2.3 mph - N/A Fog Light Freezing Fog
7:00 AM 15 °F - 14 °F 95% 30.09 in 0 mi 2.2 mph - - Fog Fog
7:25 AM 15.8 °F - 14.0 °F 93% 30.06 in 0.1 mi Calm Calm - N/A Fog Light Freezing Fog
8:25 AM 17.6 °F - 15.8 °F 93% 30.06 in 0.1 mi Variable 2.3 mph - N/A Fog Light Freezing Fog
9:25 AM 17.6 °F - 15.8 °F 93% 30.09 in 0.1 mi Variable 2.3 mph - N/A Fog Light Freezing Fog
10:25 AM 17.6 °F - 17.6 °F 100% 30.09 in 0.2 mi Variable 1.2 mph - N/A Fog Light Freezing Fog
11:25 AM 19.4 °F - 17.6 °F 93% 30.09 in 0.2 mi Variable 2.3 mph - N/A Fog Light Freezing Fog
12:25 PM 21.2 °F - 19.4 °F 93% 30.09 in 0.7 mi Variable 1.2 mph - N/A   Mostly Cloudy
12:29 PM 21.2 °F - 19.4 °F 93% 30.09 in 0.7 mi Variable 2.3 mph - N/A   Mostly Cloudy
12:38 PM 21.2 °F - 21.2 °F 100% 30.09 in 1.0 mi Variable 2.3 mph - N/A   Mostly Cloudy
1:00 PM 22 °F - 21 °F 93% 30.13 in 1 mi 2.2 mph - - Fog Light Fog
1:25 PM 23.0 °F - 21.2 °F 93% 30.09 in 1.2 mi Variable 1.2 mph - N/A   Mostly Cloudy
2:25 PM 21.2 °F - 21.2 °F 100% 30.09 in 1.5 mi Variable 1.2 mph - N/A   Mostly Cloudy
3:25 PM 23.0 °F - 21.2 °F 93% 30.09 in 1.4 mi Calm Calm - N/A   Mostly Cloudy
4:00 PM 22 °F - 20 °F 90% 30.12 in 1 mi 2.2 mph - -   Mist
5:13 PM 21.2 °F 14.9 °F 19.4 °F 93% 30.09 in 1.3 mi East 4.6 mph - N/A Snow Light Snow
5:25 PM 21.2 °F 16.4 °F 19.4 °F 93% 30.09 in 1.4 mi Variable 3.5 mph - N/A Snow Light Snow Showers
6:25 PM 21.2 °F 16.4 °F 19.4 °F 93% 30.09 in 1.7 mi Variable 3.5 mph - N/A   Mostly Cloudy
7:00 PM 21 °F - 20 °F 93% 30.12 in 2 mi 2.2 mph - -   Mist
7:25 PM 21.2 °F 14.9 °F 19.4 °F 93% 30.09 in 2.2 mi East 4.6 mph - N/A   Mostly Cloudy
8:25 PM 23.0 °F 17.0 °F 21.2 °F 93% 30.06 in - East 4.6 mph - N/A   Mostly Cloudy
8:40 PM 23.0 °F 17.0 °F 21.2 °F 93% 30.06 in 2.2 mi East 4.6 mph - N/A Snow Light Snow
8:49 PM 23.0 °F 15.8 °F 21.2 °F 93% 30.06 in - East 5.8 mph - N/A Snow Light Snow Showers
9:06 PM 23.0 °F 13.9 °F 21.2 °F 93% 30.06 in - ESE 8.1 mph - N/A Snow Light Snow
9:25 PM 23.0 °F 15.8 °F 21.2 °F 93% 30.06 in - ESE 5.8 mph - N/A Snow Light Snow Showers
10:00 PM 23 °F - 21 °F 88% 30.09 in 3 mi South 4.5 mph - - Rain Light Freezing Rain
10:25 PM 23.0 °F 17.0 °F 21.2 °F 93% 30.04 in - SSE 4.6 mph - N/A   Mostly Cloudy
10:43 PM 23.0 °F - 21.2 °F 93% 30.04 in - Variable 2.3 mph - N/A   Overcast
10:49 PM 23.0 °F - 21.2 °F 93% 30.04 in - Variable 1.2 mph - N/A   Overcast
11:12 PM 23.0 °F - 21.2 °F 93% 30.04 in - Calm Calm - N/A   Overcast
11:25 PM 23.0 °F - 21.2 °F 93% 30.04 in 2.2 mi Calm Calm - N/A   Mostly Cloudy
11:35 PM 23.0 °F - 21.2 °F 93% 30.04 in - Calm Calm - N/A   Overcast
11:55 PM 23.0 °F - 21.2 °F 93% 30.04 in - Calm Calm - N/A   Overcast